Location: Rowland
(34.5359°N, 79.2929°W)
Time: 20:27:32
(UTC+00:00)

A-11 Canister half - Pass Details

Date: 12 October 2022
Orbit: 1516 x 1684 km, 47.2° (Epoch: 28 November)

Event Time Altitude Azimuth Distance (km) Brightness Sun altitude
Rises 02:12:29 0° 285° (WNW) 4,840 12.4 -42.2°
Reaches altitude 10° 02:16:01 10° 293° (WNW) 3,829 11.7 -42.9°
Enters shadow 02:24:29 38° 354° (N) 2,242 9.9 -44.4°
